Weather History for Norfolk, NE

Change the Weather History Date:

Friday, April 26, 2013

  Actual Average Record
Temperature  
Mean Temperature 61 °F 54 °F  
Max Temperature 76 °F 66 °F 94 °F (1981)
Min Temperature 46 °F 42 °F 25 °F (1950)
Degree Days  
Heating Degree Days 4 12  
Month to date heating degree days 616 428  
Since 1 July heating degree days 6529 6377  
Cooling Degree Days 0 1  
Month to date cooling degree days 0 8  
Year to date cooling degree days 0 8  
Growing Degree Days 10 (Base 50)    
Moisture  
Dew Point 34 °F    
Average Humidity 45    
Maximum Humidity 71    
Minimum Humidity 18    
Precipitation  
Precipitation 0.00 in 0.10 in 1.20 in (1924)
Month to date precipitation 3.70 2.25  
Year to date precipitation 5.88 5.37  
Snow  
Snow 0.00 in 0.10 in - ()
Month to date snowfall 6.6 2.5  
Since 1 July snowfall 27.3 30.4  
Snow Depth 0.00 in    
Sea Level Pressure  
Sea Level Pressure 30.03 in    
Wind  
Wind Speed 11 mph (ENE)    
Max Wind Speed 26 mph    
Max Gust Speed 33 mph    
Visibility 10 miles    
Events      
T = Trace of Precipitation, MM = Missing Value Source: NWS Daily Summary

Daily Weather History Graph

Daily Weather History Graph

Search for Another Location

Airport:

Trip Planner

Search our weather history database for the weather conditions in past years. The results will help you decide how hot, cold, wet, or windy it might be!

Date:

Astronomy

Apr. 26, 2013 Rise Set
Actual Time 6:32 AM CDT 8:23 PM CDT
Civil Twilight 6:02 AM CDT 8:53 PM CDT
Nautical Twilight 5:25 AM CDT 9:30 PM CDT
Astronomical Twilight 4:46 AM CDT 10:09 PM CDT
Moon 9:48 PM CDT (4/26) 6:59 AM CDT (4/26)
Length of Visible Light 14h 51m
Length of Day
13h 51m
Full, 99% of the Moon is Illuminated
Apr 26
Full
May 2
Last Quarter
May 9
New
May 17
First Quarter
May 24
Full

Hourly Weather History & Observations

Time (CDT) Temp. Dew Point Humidity Pressure Visibility Wind Dir Wind Speed Gust Speed Precip Events Conditions
12:56 AM 54.0 °F 36.0 °F 51% 29.96 in 10.0 mi South 21.9 mph 32.2 mph N/A   Clear
1:56 AM 53.1 °F 35.1 °F 50% 29.95 in 10.0 mi South 21.9 mph - N/A   Clear
2:56 AM 52.0 °F 35.1 °F 53% 29.94 in 10.0 mi South 21.9 mph 29.9 mph N/A   Clear
3:56 AM 51.1 °F 36.0 °F 56% 29.94 in 10.0 mi South 17.3 mph - N/A   Clear
4:56 AM 50.0 °F 37.0 °F 61% 29.95 in 10.0 mi South 15.0 mph 20.7 mph N/A   Clear
5:56 AM 48.0 °F 37.0 °F 66% 29.95 in 10.0 mi SSW 16.1 mph - N/A   Clear
6:56 AM 46.9 °F 37.0 °F 68% 29.98 in 10.0 mi SSW 5.8 mph - N/A   Clear
7:56 AM 48.9 °F 37.9 °F 66% 30.00 in 10.0 mi SW 5.8 mph - N/A   Clear
8:56 AM 54.0 °F 37.9 °F 55% 30.01 in 10.0 mi SW 9.2 mph - N/A   Clear
9:56 AM 59.0 °F 36.0 °F 42% 30.03 in 10.0 mi WSW 8.1 mph - N/A   Clear
10:56 AM 63.0 °F 35.1 °F 35% 30.04 in 10.0 mi West 4.6 mph - N/A   Clear
11:56 AM 66.0 °F 34.0 °F 30% 30.06 in 10.0 mi North 5.8 mph - N/A   Clear
12:56 PM 71.1 °F 34.0 °F 26% 30.05 in 10.0 mi NNE 10.4 mph - N/A   Clear
1:56 PM 73.9 °F 30.9 °F 21% 30.04 in 10.0 mi NNE 13.8 mph 20.7 mph 0.00 in   Clear
2:56 PM 75.0 °F 28.9 °F 18% 30.05 in 10.0 mi NNE 15.0 mph - N/A   Clear
3:56 PM 75.0 °F 28.9 °F 18% 30.04 in 10.0 mi NNE 16.1 mph 24.2 mph N/A   Clear
4:56 PM 73.9 °F 28.0 °F 18% 30.05 in 10.0 mi ENE 5.8 mph - N/A   Clear
5:56 PM 75.0 °F 28.9 °F 18% 30.06 in 10.0 mi NE 13.8 mph - N/A   Clear
6:56 PM 73.0 °F 28.9 °F 20% 30.07 in 10.0 mi NNE 6.9 mph - N/A   Clear
7:56 PM 68.0 °F 32.0 °F 26% 30.09 in 10.0 mi NNE 8.1 mph - N/A   Clear
8:56 PM 61.0 °F 35.1 °F 38% 30.10 in 10.0 mi North 5.8 mph - N/A   Clear
9:56 PM 60.1 °F 33.1 °F 36% 30.14 in 10.0 mi NNE 8.1 mph - N/A   Clear
10:56 PM 57.9 °F 32.0 °F 37% 30.16 in 10.0 mi East 8.1 mph - N/A   Clear
11:56 PM 54.0 °F 34.0 °F 47% 30.15 in 10.0 mi East 5.8 mph - N/A   Clear